| time (UTC) | temp C | wind direction | speed KPH | gust KPH | rain 1hr cm | rain 24hr cm | rain mn cm | humidity % | barometer mb |
| 20260901063052 | 12 | 5 | 0.0 | 0.0 | 0.00 | 0.00 | 0.00 | 62 | 1008.2 |
| 20260901061534 | 12 | 5 | 0.0 | 0.0 | 0.00 | 0.00 | 0.00 | 62 | 1008.3 |
| 20260901060034 | 12 | 5 | 0.0 | 0.0 | 0.00 | 0.00 | 0.00 | 61 | 1008.3 |
| 20260901054515 | 13 | 5 | 0.0 | 0.0 | 0.00 | 0.00 | 0.00 | 59 | 1008.4 |
| 20260901053018 | 13 | 5 | 0.0 | 0.0 | 0.00 | 0.00 | 0.00 | 58 | 1008.4 |
| 20260901051559 | 14 | 5 | 0.0 | 0.0 | 0.00 | 0.00 | 0.00 | 56 | 1008.5 |
| 20260901050055 | 14 | 5 | 0.0 | 0.0 | 0.00 | 0.00 | 0.00 | 55 | 1008.6 |
| 20260901044559 | 15 | 5 | 0.0 | 0.0 | 0.00 | 0.00 | 0.00 | 52 | 1008.7 |
| 20260901043040 | 16 | 5 | 0.0 | 0.0 | 0.00 | 0.00 | 0.00 | 49 | 1008.7 |
| 20260901041519 | 16 | 5 | 0.0 | 0.0 | 0.00 | 0.00 | 0.00 | 48 | 1008.9 |
| 20260901040019 | 17 | 5 | 0.0 | 0.0 | 0.00 | 0.00 | 0.00 | 45 | 1008.9 |
| 20260901034502 | 18 | 5 | 0.0 | 0.0 | 0.00 | 0.00 | 0.00 | 44 | 1008.9 |
| 20260901033002 | 19 | 5 | 0.0 | 0.0 | 0.00 | 0.00 | 0.00 | 41 | 1008.8 |
| 20260901031548 | 20 | 5 | 0.0 | 0.0 | 0.00 | 0.00 | 0.00 | 37 | 1008.9 |
| 20260901030043 | 21 | 5 | 0.0 | 0.0 | 0.00 | 0.00 | 0.00 | 36 | 1008.7 |
| 20260901024526 | 22 | 5 | 0.0 | 0.0 | 0.00 | 0.00 | 0.00 | 33 | 1008.6 |
| 20260901023026 | 23 | 5 | 0.0 | 0.0 | 0.00 | 0.00 | 0.00 | 32 | 1008.6 |
| 20260901021509 | 24 | 5 | 0.0 | 0.0 | 0.00 | 0.00 | 0.00 | 30 | 1008.7 |
| 20260901020027 | 25 | 5 | 0.0 | 0.0 | 0.00 | 0.00 | 0.00 | 28 | 1008.9 |
| 20260901014551 | 26 | 5 | 0.0 | 0.0 | 0.00 | 0.00 | 0.00 | 27 | 1008.8 |
| 20260901013047 | 26 | 5 | 0.0 | 0.0 | 0.00 | 0.00 | 0.00 | 25 | 1008.9 |
| 20260901011535 | 27 | 5 | 1.6 | 0.0 | 0.00 | 0.00 | 0.00 | 22 | 1008.9 |
| 20260901010027 | 27 | 5 | 1.6 | 0.0 | 0.00 | 0.00 | 0.00 | 21 | 1008.9 |
| 20260901004510 | 28 | 5 | 0.0 | 0.0 | 0.00 | 0.00 | 0.00 | 20 | 1009.1 |
| 20260901003008 | 28 | 5 | 0.0 | 0.0 | 0.00 | 0.00 | 0.00 | 19 | 1009.3 |
| 20260901001606 | 27 | 5 | 1.6 | 0.0 | 0.00 | 0.00 | 0.00 | 20 | 1009.6 |
| 20260901000052 | 28 | 5 | 1.6 | 0.0 | 0.00 | 0.00 | 0.00 | 19 | 1009.8 |
| 20260831234526 | 28 | 360 | 1.6 | 0.0 | 0.00 | 0.00 | 0.00 | 19 | 1009.9 |
| 20260831233038 | 28 | 350 | 3.2 | 0.0 | 0.00 | 0.00 | 0.00 | 19 | 1010.0 |
| 20260831231506 | 27 | 308 | 3.2 | 0.0 | 0.00 | 0.00 | 0.00 | 20 | 1010.2 |
| 20260831230004 | 28 | 276 | 1.6 | 0.0 | 0.00 | 0.00 | 0.00 | 19 | 1010.4 |
| 20260831224544 | 27 | 309 | 0.0 | 0.0 | 0.00 | 0.00 | 0.00 | 19 | 1010.7 |
| 20260831223045 | 27 | 310 | 3.2 | 0.0 | 0.00 | 0.00 | 0.00 | 19 | 1011.0 |
| 20260831221525 | 28 | 186 | 3.2 | 0.0 | 0.00 | 0.00 | 0.00 | 19 | 1011.3 |
| 20260831220023 | 27 | 93 | 4.8 | 0.0 | 0.00 | 0.00 | 0.00 | 19 | 1011.5 |
| 20260831214504 | 27 | 132 | 4.8 | 0.0 | 0.00 | 0.00 | 0.00 | 20 | 1011.7 |
| 20260831213100 | 27 | 204 | 3.2 | 0.0 | 0.00 | 0.00 | 0.00 | 20 | 1012.0 |
| 20260831211610 | 27 | 275 | 3.2 | 0.0 | 0.00 | 0.00 | 0.00 | 21 | 1012.1 |
| 20260831210046 | 26 | 87 | 3.2 | 0.0 | 0.00 | 0.00 | 0.00 | 21 | 1012.3 |
| 20260831204536 | 27 | 143 | 3.2 | 0.0 | 0.00 | 0.00 | 0.00 | 21 | 1012.4 |
| 20260831203016 | 26 | 86 | 1.6 | 0.0 | 0.00 | 0.00 | 0.00 | 22 | 1012.6 |
| 20260831201516 | 26 | 87 | 3.2 | 0.0 | 0.00 | 0.00 | 0.00 | 23 | 1012.9 |
| 20260831200054 | 25 | 84 | 3.2 | 0.0 | 0.00 | 0.00 | 0.00 | 22 | 1013.2 |
| 20260831194627 | 25 | 186 | 1.6 | 0.0 | 0.00 | 0.00 | 0.00 | 23 | 1013.3 |
| 20260831193034 | 25 | 284 | 1.6 | 0.0 | 0.00 | 0.00 | 0.00 | 23 | 1013.5 |
| 20260831191534 | 24 | 282 | 3.2 | 0.0 | 0.00 | 0.00 | 0.00 | 24 | 1013.7 |
| 20260831190009 | 23 | 175 | 1.6 | 0.0 | 0.00 | 0.00 | 0.00 | 25 | 1014.0 |
| 20260831184513 | 23 | 180 | 3.2 | 0.0 | 0.00 | 0.00 | 0.00 | 25 | 1014.2 |
| 20260831183059 | 23 | 144 | 1.6 | 0.0 | 0.00 | 0.00 | 0.00 | 27 | 1014.4 |
| 20260831181545 | 23 | 145 | 1.6 | 0.0 | 0.00 | 0.00 | 0.00 | 28 | 1014.7 |
| 20260831180031 | 22 | 146 | 1.6 | 0.0 | 0.00 | 0.00 | 0.00 | 30 | 1014.9 |
| 20260831174519 | 21 | 150 | 0.0 | 0.0 | 0.00 | 0.00 | 0.00 | 32 | 1015.0 |
| 20260831173106 | 21 | 150 | 1.6 | 0.0 | 0.00 | 0.00 | 0.00 | 33 | 1015.2 |
| 20260831171556 | 20 | 277 | 1.6 | 0.0 | 0.00 | 0.00 | 0.00 | 35 | 1015.4 |
| 20260831170036 | 18 | 279 | 0.0 | 0.0 | 0.00 | 0.00 | 0.00 | 38 | 1015.5 |
| 20260831164536 | 17 | 279 | 0.0 | 0.0 | 0.00 | 0.00 | 0.00 | 39 | 1015.8 |
| 20260831163014 | 16 | 279 | 0.0 | 0.0 | 0.00 | 0.00 | 0.00 | 44 | 1015.9 |
| 20260831161512 | 15 | 279 | 0.0 | 0.0 | 0.00 | 0.00 | 0.00 | 47 | 1016.1 |
| 20260831160055 | 15 | 279 | 0.0 | 0.0 | 0.00 | 0.00 | 0.00 | 52 | 1016.3 |
| 20260831154551 | 13 | 279 | 0.0 | 0.0 | 0.00 | 0.00 | 0.00 | 56 | 1016.3 |
| 20260831153050 | 11 | 279 | 0.0 | 0.0 | 0.00 | 0.00 | 0.00 | 65 | 1016.4 |
| 20260831151555 | 10 | 279 | 0.0 | 0.0 | 0.00 | 0.00 | 0.00 | 70 | 1016.3 |
| 20260831150040 | 8 | 279 | 0.0 | 0.0 | 0.00 | 0.00 | 0.00 | 78 | 1016.4 |
| 20260831144548 | 5 | 279 | 0.0 | 0.0 | 0.00 | 0.00 | 0.00 | 79 | 1016.4 |
| 20260831143036 | 5 | 279 | 0.0 | 0.0 | 0.00 | 0.00 | 0.00 | 82 | 1016.4 |
| 20260831141525 | 3 | 279 | 0.0 | 0.0 | 0.00 | 0.00 | 0.00 | 84 | 1016.4 |
| 20260831140004 | 2 | 279 | 0.0 | 0.0 | 0.00 | 0.00 | 0.00 | 84 | 1016.4 |
| 20260831134504 | 2 | 279 | 0.0 | 0.0 | 0.00 | 0.00 | 0.00 | 84 | 1016.2 |
| 20260831133046 | 2 | 279 | 0.0 | 0.0 | 0.00 | 0.00 | 0.00 | 84 | 1016.1 |
| 20260831131544 | 1 | 279 | 0.0 | 0.0 | 0.00 | 0.00 | 0.00 | 83 | 1016.0 |
| 20260831130025 | 1 | 279 | 0.0 | 0.0 | 0.00 | 0.00 | 0.00 | 82 | 1016.0 |
| 20260831124524 | 2 | 279 | 0.0 | 0.0 | 0.00 | 0.00 | 0.00 | 81 | 1016.0 |
| 20260831123004 | 2 | 279 | 0.0 | 0.0 | 0.00 | 0.00 | 0.00 | 82 | 1016.0 |
| 20260831121503 | 2 | 279 | 0.0 | 0.0 | 0.00 | 0.00 | 0.00 | 81 | 1015.9 |
| 20260831120046 | 2 | 279 | 0.0 | 0.0 | 0.00 | 0.00 | 0.00 | 81 | 1015.7 |
| 20260831114543 | 2 | 279 | 0.0 | 0.0 | 0.00 | 0.00 | 0.00 | 80 | 1015.9 |
| 20260831113023 | 3 | 279 | 0.0 | 0.0 | 0.00 | 0.00 | 0.00 | 80 | 1015.8 |
| 20260831111523 | 3 | 279 | 0.0 | 0.0 | 0.00 | 0.00 | 0.00 | 80 | 1015.8 |
| 20260831110005 | 3 | 279 | 0.0 | 0.0 | 0.00 | 0.00 | 0.00 | 80 | 1015.8 |
| 20260831104509 | 3 | 279 | 0.0 | 0.0 | 0.00 | 0.00 | 0.00 | 79 | 1015.8 |
| 20260831103052 | 3 | 279 | 0.0 | 0.0 | 0.00 | 0.00 | 0.00 | 78 | 1015.8 |
| 20260831101546 | 3 | 279 | 0.0 | 0.0 | 0.00 | 0.00 | 0.00 | 78 | 1016.0 |
| 20260831100027 | 3 | 279 | 0.0 | 0.0 | 0.00 | 0.00 | 0.00 | 78 | 1015.9 |
| 20260831094530 | 3 | 279 | 0.0 | 0.0 | 0.00 | 0.00 | 0.00 | 77 | 1015.9 |
| 20260831093009 | 3 | 279 | 0.0 | 0.0 | 0.00 | 0.00 | 0.00 | 77 | 1016.1 |
| 20260831091508 | 4 | 279 | 0.0 | 0.0 | 0.00 | 0.00 | 0.00 | 77 | 1016.1 |
| 20260831090050 | 4 | 279 | 0.0 | 0.0 | 0.00 | 0.00 | 0.00 | 76 | 1016.2 |
| 20260831084602 | 4 | 279 | 0.0 | 0.0 | 0.00 | 0.00 | 0.00 | 76 | 1016.3 |
| 20260831083038 | 4 | 279 | 0.0 | 0.0 | 0.00 | 0.00 | 0.00 | 75 | 1016.3 |
| 20260831081535 | 4 | 279 | 0.0 | 0.0 | 0.00 | 0.00 | 0.00 | 74 | 1016.4 |
| 20260831080014 | 5 | 279 | 0.0 | 0.0 | 0.00 | 0.00 | 0.00 | 73 | 1016.3 |
| 20260831074531 | 5 | 279 | 0.0 | 0.0 | 0.00 | 0.00 | 0.00 | 73 | 1016.3 |
| 20260831073138 | 6 | 279 | 0.0 | 0.0 | 0.00 | 0.00 | 0.00 | 72 | 1016.3 |
| 20260831071555 | 6 | 279 | 0.0 | 0.0 | 0.00 | 0.00 | 0.00 | 70 | 1016.1 |
| 20260831070038 | 6 | 279 | 0.0 | 0.0 | 0.00 | 0.00 | 0.00 | 70 | 1016.1 |
| 20260831064541 | 7 | 279 | 0.0 | 0.0 | 0.00 | 0.00 | 0.00 | 68 | 1016.1 |